Location: Rounton
(54.4000°N, 1.3500°W)
Time: 20:39:34
(UTC+01:00)

deb Delta 126 - Pass Details

Date: 01 July 2022
Orbit: 1120 x 1970 km, 101.5° (Epoch: 17 August)

Event Time Altitude Azimuth Distance (km) Brightness Sun altitude
Rises 03:24:41 0° 67° (ENE) 4,645 ? -7.2°
Reaches altitude 10° 03:28:26 10° 51° (NE) 3,806 ? -6.9°
Maximum altitude 03:34:06 19° 12° (NNE) 3,345 ? -6.5°
Drops below altitude 10° 03:40:15 10° 334° (NNW) 4,186 ? -6.0°
Sets 03:44:40 0° 319° (NW) 5,284 ? -5.6°
